User: anonymous   Login
Location: Unspecified
(0.0000°N, 0.0000°E)
Time: 04:48:23
(UTC+00:00)
Language:

ESSA 6 - Orbit

View from above orbital plane
View from above orbital plane
View from above satellite
View from above satellite

Ground track
Ground track

The orbit data is extracted from the following two-line orbital elements,

1  3035U 67114A   18020.58573524 -.00000053 +00000-0 -28143-4 0  9992
2  3035 102.2399 014.2227 0048637 191.9687 306.0091 12.54215709297773
Epoch (UTC): 20 January 2018 14:03:27
Eccentricity: 0.0048637
inclination: 102.2399°
perigee height: 1409 km
apogee height: 1485 km
right ascension of ascending node: 14.2227°
argument of perigee: 191.9687°
revolutions per day: 12.54215709
mean anomaly at epoch: 306.0091°
orbit number at epoch: 29777

The dashed part of the orbit path shows where the satellite is in the earth's shadow,  

DLR